Date String (YYYY-MM-DD hh:mm:ss) UTC,Instrument flags,Ambient pressure (hPa),Sample flow (lpm),Bypass flow (lpm),Sample temperature (°C),Ambient temperature (°C),ASC tube jacket temperature (°C),LED temperature (°C),Box temperature (°C),Sample RH (%),Span deviation,Mass concentration (μg/m³),Mass concentration (μg/m³),Mass concentration (μg/m³)
DateTimeUTC,F1_M11,P_M11,Q1_M11,Q2_M11,T1_M11,T2_M11,T3_M11,T4_M11,T5_M11,U1_M11,ZSPAN_M11,X0_M11,X2_M11,X1_M11
2023-05-02 07:00:00,,0828.3,4.99,0.00,29.6,27.8,00.0,38.1,31.0,13.2,0000.0,0017.73,0006.63,0004.71
2023-05-02 07:01:00,,0828.3,5.00,0.00,29.6,27.8,00.0,38.1,31.0,13.2,0000.0,0017.12,0006.62,0004.72
2023-05-02 07:02:00,,0828.3,5.00,0.00,29.6,27.8,00.0,38.1,31.0,13.2,0000.0,0017.61,0006.57,0004.72
2023-05-02 07:03:00,,0828.3,5.01,0.00,29.5,27.8,00.0,38.0,31.0,13.1,0000.0,0017.68,0006.53,0004.72
2023-05-02 07:04:00,,0828.3,5.00,0.00,29.5,27.8,00.0,38.0,31.0,13.1,0000.4,0017.62,0006.55,0004.73
2023-05-02 07:05:00,,0828.3,5.00,0.00,29.5,27.8,00.0,38.0,31.0,13.1,0001.7,0017.94,0006.62,0004.74
2023-05-02 07:06:00,,0828.3,5.00,0.00,29.5,27.8,00.0,38.0,31.0,13.2,0003.1,0018.06,0006.72,0004.75
2023-05-02 07:07:00,,0828.3,4.99,0.00,29.5,27.8,00.0,38.0,30.9,13.2,0003.1,0018.16,0006.70,0004.75
2023-05-02 07:08:00,,0828.3,5.00,0.00,29.5,27.8,00.0,38.0,31.0,13.2,0003.5,0018.76,0006.75,0004.74
2023-05-02 07:09:00,,0828.3,5.00,0.00,29.5,27.8,00.0,38.0,30.9,13.3,0004.5,0018.77,0006.76,0004.74
2023-05-02 07:10:00,,0828.3,5.01,0.00,29.5,27.8,00.0,38.0,30.9,13.3,0004.5,0018.87,0006.72,0004.74
2023-05-02 07:11:00,,0828.3,5.01,0.00,29.5,27.8,00.0,38.0,30.9,13.4,0004.8,0019.00,0006.70,0004.74
2023-05-02 07:12:00,,0828.3,5.00,0.00,29.5,27.7,00.0,38.0,30.9,13.6,0004.9,0018.80,0006.70,0004.74
2023-05-02 07:13:00,,0828.3,5.00,0.00,29.5,27.8,00.0,37.9,30.9,13.8,0005.4,0018.28,0006.73,0004.78
2023-05-02 07:14:00,,0828.3,5.00,0.00,29.4,27.8,00.0,37.9,30.9,13.8,0001.6,0018.31,0006.76,0004.79
2023-05-02 07:15:00,,0828.4,5.00,0.00,29.4,27.7,00.0,37.9,30.9,13.7,0000.6,0017.87,0006.77,0004.80
2023-05-02 07:16:00,,0828.3,5.00,0.00,29.4,27.7,00.0,37.9,30.9,13.7,0000.0,0018.04,0006.79,0004.80
2023-05-02 07:17:00,,0828.3,5.00,0.00,29.4,27.7,00.0,37.9,30.9,13.8,0003.8,0017.68,0006.79,0004.81
2023-05-02 07:18:00,,0828.3,5.00,0.00,29.4,27.7,00.0,37.9,30.9,13.8,0000.4,0017.62,0006.85,0004.81
2023-05-02 07:19:00,,0828.3,4.99,0.00,29.4,27.7,00.0,37.9,30.8,13.8,0000.0,0016.93,0006.90,0004.83
2023-05-02 07:20:00,,0828.4,5.00,0.00,29.4,27.6,00.0,37.9,30.9,13.8,0000.0,0017.18,0006.92,0004.82
2023-05-02 07:21:00,,0828.3,5.00,0.00,29.4,27.6,00.0,37.9,30.9,13.8,0000.0,0019.40,0007.02,0004.82
2023-05-02 07:22:00,,0828.3,5.01,0.00,29.4,27.6,00.0,37.9,30.8,13.8,0000.0,0020.38,0007.07,0004.82
2023-05-02 07:23:00,,0828.3,5.01,0.00,29.3,27.6,00.0,37.9,30.8,13.8,0000.0,0020.91,0007.15,0004.81
2023-05-02 07:24:00,,0828.3,5.00,0.00,29.3,27.6,00.0,37.8,30.8,13.8,0000.0,0022.37,0007.14,0004.77
2023-05-02 07:25:00,,0828.3,5.00,0.00,29.3,27.6,00.0,37.8,30.8,13.8,0000.0,0022.09,0007.12,0004.73
2023-05-02 07:26:00,,0828.3,5.00,0.00,29.3,27.6,00.0,37.8,30.8,13.7,0000.0,0022.37,0007.03,0004.69
2023-05-02 07:27:00,,0828.3,5.00,0.00,29.3,27.6,00.0,37.8,30.7,13.6,0000.0,0021.62,0006.91,0004.65
2023-05-02 07:28:00,,0828.3,5.00,0.00,29.3,27.6,00.0,37.8,30.7,13.5,0000.0,0022.06,0006.75,0004.60
2023-05-02 07:29:00,,0828.4,5.00,0.00,29.3,27.5,00.0,37.8,30.7,13.4,0000.0,0021.70,0006.66,0004.56
2023-05-02 07:30:00,,0828.3,5.00,0.00,29.2,27.5,00.0,37.8,30.7,13.5,0000.0,0022.00,0006.54,0004.51
2023-05-02 07:31:00,,0828.3,5.00,0.00,29.2,27.4,00.0,37.8,30.7,13.5,0002.1,0022.33,0006.46,0004.47
2023-05-02 07:32:00,,0828.3,4.99,0.00,29.2,27.4,00.0,37.7,30.7,13.5,0001.2,0020.30,0006.33,0004.43
2023-05-02 07:33:00,,0828.4,5.00,0.00,29.2,27.4,00.0,37.7,30.6,13.5,0002.8,0018.56,0006.19,0004.38
2023-05-02 07:34:00,,0828.3,5.00,0.00,29.2,27.4,00.0,37.7,30.6,13.5,-000.7,0017.87,0006.04,0004.34
2023-05-02 07:35:00,,0828.3,5.00,0.00,29.2,27.4,00.0,37.7,30.6,13.5,0003.8,0016.57,0005.98,0004.31
2023-05-02 07:36:00,,0828.3,5.00,0.00,29.2,27.4,00.0,37.7,30.6,13.5,0002.1,0018.12,0005.94,0004.29
2023-05-02 07:37:00,,0828.3,5.00,0.00,29.1,27.4,00.0,37.7,30.6,13.5,0000.0,0018.16,0005.95,0004.28
2023-05-02 07:38:00,,0828.3,5.00,0.00,29.1,27.4,00.0,37.7,30.6,13.5,0000.0,0018.13,0005.96,0004.28
2023-05-02 07:39:00,,0828.3,5.01,0.00,29.1,27.3,00.0,37.6,30.5,13.6,0000.4,0017.89,0005.94,0004.26
2023-05-02 07:40:00,,0828.3,5.00,0.00,29.1,27.3,00.0,37.6,30.5,13.6,0002.3,0018.21,0005.94,0004.26
2023-05-02 07:41:00,,0828.3,4.99,0.00,29.1,27.3,00.0,37.6,30.5,13.6,0004.1,0017.80,0005.93,0004.26
2023-05-02 07:42:00,,0828.3,4.99,0.00,29.1,27.3,00.0,37.6,30.5,13.7,0004.6,0017.55,0005.93,0004.27
2023-05-02 07:43:00,,0828.3,5.02,0.00,29.0,27.2,00.0,37.6,30.5,13.7,0003.2,0018.66,0005.90,0004.27
2023-05-02 07:44:00,,0828.2,5.00,0.00,29.0,27.2,00.0,37.6,30.5,13.6,0004.8,0019.64,0005.88,0004.28
2023-05-02 07:45:00,,0828.3,5.00,0.00,29.0,27.2,00.0,37.6,30.4,13.4,0004.8,0019.97,0005.87,0004.32
2023-05-02 07:46:00,,0828.3,4.99,0.00,29.0,27.2,00.0,37.5,30.4,13.4,0004.6,0019.83,0005.84,0004.35
2023-05-02 07:47:00,,0828.3,5.00,0.00,29.0,27.2,00.0,37.5,30.4,13.5,0004.2,0018.36,0005.83,0004.36
2023-05-02 07:48:00,,0828.3,5.00,0.00,29.0,27.2,00.0,37.5,30.4,13.5,0004.7,0017.72,0005.82,0004.38
2023-05-02 07:49:00,,0828.3,5.01,0.00,29.0,27.1,00.0,37.5,30.4,13.5,0005.0,0017.49,0005.81,0004.40
2023-05-02 07:50:00,,0828.3,5.00,0.00,28.9,27.1,00.0,37.5,30.4,13.5,0005.1,0018.18,0005.85,0004.43
2023-05-02 07:51:00,,0828.3,4.99,0.00,28.9,27.1,00.0,37.5,30.4,13.5,0004.8,0018.86,0005.81,0004.45
2023-05-02 07:52:00,,0828.3,4.99,0.00,28.9,27.1,00.0,37.4,30.4,13.5,0003.9,0019.05,0005.93,0004.48
2023-05-02 07:53:00,,0828.3,5.00,0.00,28.9,27.1,00.0,37.4,30.3,13.5,0003.9,0018.56,0005.94,0004.51
2023-05-02 07:54:00,,0828.4,5.00,0.00,28.9,27.1,00.0,37.4,30.3,13.6,0003.8,0017.56,0005.96,0004.53
2023-05-02 07:55:00,,0828.3,5.01,0.00,28.9,27.1,00.0,37.4,30.3,13.6,0002.8,0017.40,0006.03,0004.56
2023-05-02 07:56:00,,0828.3,5.01,0.00,28.9,27.0,00.0,37.4,30.3,13.6,0003.0,0017.77,0006.06,0004.56
2023-05-02 07:57:00,,0828.3,4.99,0.00,28.8,27.1,00.0,37.4,30.3,13.6,0001.7,0018.18,0006.09,0004.57
2023-05-02 07:58:00,,0828.4,5.00,0.00,28.8,27.1,00.0,37.4,30.3,13.6,0000.0,0017.83,0006.09,0004.59
2023-05-02 07:59:00,,0828.3,5.00,0.00,28.8,27.1,00.0,37.4,30.3,13.7,0002.0,0017.30,0006.12,0004.60
